timestamp,surface_pressure_avg,surface_temp_avg,battery_voltage,lat,long
2023-10-04 00:09:01+00:00,278.6763,13.24,11.86,47.84626,-54.09684
2023-10-04 00:19:01+00:00,283.613,13.26,11.86,47.84626,-54.09684
2023-10-04 00:29:01+00:00,291.493,13.2,11.86,47.84626,-54.09684
2023-10-04 00:39:01+00:00,297.5081,13.2,11.86,47.84626,-54.09684
2023-10-04 00:49:01+00:00,300.8347,13.2,11.86,47.84626,-54.09684
2023-10-04 00:59:01+00:00,305.358,13.2,11.86,47.84626,-54.09684
2023-10-04 01:09:01+00:00,311.253,13.2,11.86,47.84626,-54.09684
2023-10-04 01:19:00+00:00,315.3763,13.2,11.86,47.84626,-54.09684
2023-10-04 01:29:00+00:00,321.4047,13.2,11.86,47.84626,-54.09684
2023-10-04 01:39:00+00:00,328.4663,13.2,11.86,47.84626,-54.09684
2023-10-04 01:49:00+00:00,331.9213,13.2,11.86,47.84626,-54.09684
2023-10-04 01:59:00+00:00,331.3279,13.2,11.86,47.84626,-54.09684
2023-10-04 02:09:00+00:00,333.9446,13.2,11.86,47.84626,-54.09684
2023-10-04 02:19:00+00:00,337.783,13.2,11.86,47.84626,-54.09684
2023-10-04 02:29:00+00:00,336.5913,13.19,11.86,47.84626,-54.09684
2023-10-04 02:39:00+00:00,333.2713,13.17,11.86,47.84626,-54.09684
2023-10-04 02:49:00+00:00,335.858,13.19,11.86,47.84626,-54.09684
2023-10-04 02:59:00+00:00,336.1929,13.19,11.86,47.84626,-54.09684
2023-10-04 03:09:00+00:00,331.5196,13.14,11.86,47.84626,-54.09684
2023-10-04 03:19:00+00:00,328.1246,13.14,11.77,47.84626,-54.09684
2023-10-04 03:29:00+00:00,330.353,13.17,11.77,47.84626,-54.09684
2023-10-04 03:39:00+00:00,330.4029,13.13,11.77,47.84626,-54.09684
2023-10-04 03:49:00+00:00,326.078,13.1,11.77,47.84626,-54.09684
2023-10-04 03:59:00+00:00,321.403,13.1,11.77,47.84626,-54.09684
2023-10-04 04:09:00+00:00,318.5114,13.11,11.77,47.84626,-54.09684
2023-10-04 04:19:00+00:00,316.0563,13.1,11.77,47.84626,-54.09684
2023-10-04 04:29:00+00:00,312.1147,13.1,11.77,47.84626,-54.09684
2023-10-04 04:39:00+00:00,309.9497,13.1,11.77,47.84626,-54.09684
2023-10-04 04:49:00+00:00,305.0281,13.1,11.77,47.84626,-54.09684
2023-10-04 04:59:00+00:00,299.903,13.09,11.77,47.84626,-54.09684
2023-10-04 05:09:00+00:00,297.2531,13.09,11.77,47.84626,-54.09684
2023-10-04 05:19:00+00:00,290.6397,13.09,11.77,47.84626,-54.09684
2023-10-04 05:29:00+00:00,278.2714,13.0,11.77,47.84626,-54.09684
2023-10-04 05:39:00+00:00,270.5247,13.0,11.77,47.84626,-54.09684
2023-10-04 05:49:00+00:00,266.6648,13.0,11.77,47.84626,-54.09684
2023-10-04 05:59:00+00:00,259.7214,13.0,11.77,47.84626,-54.09684
2023-10-04 06:09:00+00:00,249.5681,13.0,11.77,47.84626,-54.09684
2023-10-04 06:19:00+00:00,240.8931,13.0,11.77,47.84626,-54.09684
2023-10-04 06:29:00+00:00,231.5997,12.99,11.77,47.84626,-54.09684
2023-10-04 06:39:00+00:00,220.4731,13.0,11.77,47.84626,-54.09684
2023-10-04 06:49:00+00:00,212.3698,13.0,11.77,47.84626,-54.09684
2023-10-04 06:59:00+00:00,207.6065,13.06,11.77,47.84626,-54.09684
2023-10-04 07:09:00+00:00,199.5531,13.1,11.77,47.84626,-54.09684
2023-10-04 07:19:00+00:00,190.6448,13.0,11.77,47.84626,-54.09684
2023-10-04 07:29:00+00:00,185.6131,12.99,11.77,47.84626,-54.09684
2023-10-04 07:39:00+00:00,186.2365,13.0,11.77,47.84626,-54.09684
2023-10-04 07:49:00+00:00,185.8615,13.0,11.77,47.84626,-54.09684
2023-10-04 07:59:00+00:00,186.0665,13.0,11.77,47.84626,-54.09684
2023-10-04 08:09:00+00:00,188.8181,13.0,11.77,47.84626,-54.09684
2023-10-04 08:19:00+00:00,191.4965,13.0,11.77,47.84626,-54.09684
2023-10-04 08:29:00+00:00,195.7697,13.0,11.77,47.84626,-54.09684
2023-10-04 08:39:00+00:00,198.1514,13.0,11.77,47.84626,-54.09684
2023-10-04 08:49:00+00:00,201.2648,13.0,11.77,47.84626,-54.09684
2023-10-04 08:59:00+00:00,208.4147,13.0,11.77,47.84626,-54.09684
2023-10-04 09:09:00+00:00,215.8098,12.93,11.77,47.84626,-54.09684
2023-10-04 09:19:00+00:00,221.2248,12.9,11.77,47.84626,-54.09684
2023-10-04 09:29:00+00:00,226.8381,12.9,11.77,47.84626,-54.09684
2023-10-04 09:39:00+00:00,233.3531,12.85,11.77,47.84626,-54.09684
2023-10-04 09:49:00+00:00,237.8247,12.8,11.77,47.84626,-54.09684
2023-10-04 09:59:00+00:00,240.4098,12.8,11.77,47.84626,-54.09684
2023-10-04 10:09:00+00:00,245.9414,12.8,11.77,47.84626,-54.09684
2023-10-04 10:19:00+00:00,250.2698,12.78,11.86,47.84626,-54.09684
2023-10-04 10:29:00+00:00,250.5732,12.7,11.86,47.84626,-54.09684
2023-10-04 10:39:00+00:00,254.808,12.7,11.86,47.84626,-54.09684
2023-10-04 10:49:00+00:00,259.9031,12.7,11.86,47.84626,-54.09684
2023-10-04 10:59:00+00:00,261.7197,12.7,11.86,47.84626,-54.09684
2023-10-04 11:09:00+00:00,259.6047,12.71,11.86,47.84626,-54.09684
2023-10-04 11:19:00+00:00,264.6547,12.7,12.17,47.84626,-54.09684
2023-10-04 11:29:00+00:00,271.2781,12.7,12.17,47.84626,-54.09684
2023-10-04 11:39:00+00:00,278.1981,12.7,12.17,47.84626,-54.09684
2023-10-04 11:49:00+00:00,278.9181,12.7,12.17,47.84626,-54.09684
2023-10-04 11:59:00+00:00,279.868,12.8,12.17,47.84626,-54.09684
2023-10-04 12:09:00+00:00,285.5798,12.77,12.17,47.84626,-54.09684
2023-10-04 12:19:00+00:00,296.078,12.78,12.33,47.84626,-54.09684
2023-10-04 12:29:00+00:00,298.3681,12.77,12.33,47.84626,-54.09684
2023-10-04 12:39:00+00:00,300.5114,12.79,12.33,47.84626,-54.09684
2023-10-04 12:49:00+00:00,310.6013,12.79,12.33,47.84626,-54.09684
2023-10-04 12:59:00+00:00,316.7247,12.8,12.33,47.84626,-54.09684
2023-10-04 13:09:00+00:00,319.0397,12.8,12.33,47.84626,-54.09684
2023-10-04 13:19:01+00:00,327.4047,12.8,12.17,47.84626,-54.09684
2023-10-04 13:29:01+00:00,338.2697,12.8,12.17,47.84626,-54.09684
2023-10-04 13:39:01+00:00,341.2596,12.8,12.17,47.84626,-54.09684
2023-10-04 13:49:01+00:00,344.3615,12.81,12.17,47.84626,-54.09684
2023-10-04 13:59:01+00:00,351.4695,12.89,12.17,47.84626,-54.09684
2023-10-04 14:09:01+00:00,357.7045,12.9,12.17,47.84626,-54.09684
2023-10-04 14:19:01+00:00,358.0862,12.89,12.09,47.84626,-54.09684
2023-10-04 14:29:01+00:00,358.483,12.84,12.09,47.84626,-54.09684
2023-10-04 14:39:01+00:00,363.8213,12.8,12.09,47.84626,-54.09684
2023-10-04 14:49:01+00:00,366.5496,12.8,12.09,47.84626,-54.09684
2023-10-04 14:59:01+00:00,366.7779,12.8,12.09,47.84626,-54.09684
2023-10-04 15:09:01+00:00,370.0978,12.8,12.09,47.84626,-54.09684
2023-10-04 15:19:00+00:00,374.3196,12.8,12.09,47.84626,-54.09684
2023-10-04 15:29:00+00:00,372.718,12.8,12.09,47.84626,-54.09684
2023-10-04 15:39:00+00:00,370.3679,12.84,12.09,47.84626,-54.09684
2023-10-04 15:49:00+00:00,368.0963,12.85,12.09,47.84626,-54.09684
2023-10-04 15:59:00+00:00,366.2646,12.84,12.09,47.84626,-54.09684
2023-10-04 16:09:00+00:00,363.8863,12.86,12.09,47.84626,-54.09684
2023-10-04 16:19:00+00:00,360.8547,12.87,12.17,47.84626,-54.09684
2023-10-04 16:29:00+00:00,357.36800000000005,12.89,12.17,47.84626,-54.09684
2023-10-04 16:39:00+00:00,357.61300000000006,12.9,12.17,47.84626,-54.09684
2023-10-04 16:49:00+00:00,353.528,12.9,12.17,47.84626,-54.09684
2023-10-04 16:59:00+00:00,347.418,12.9,12.17,47.84626,-54.09684
2023-10-04 17:09:00+00:00,341.8730000000001,12.9,12.17,47.84626,-54.09684
2023-10-04 17:19:01+00:00,338.1763,12.9,12.17,47.84626,-54.09684
2023-10-04 17:29:01+00:00,329.8796,12.9,12.17,47.84626,-54.09684
2023-10-04 17:39:01+00:00,319.1146,12.9,12.17,47.84626,-54.09684
2023-10-04 17:49:01+00:00,312.9113,12.9,12.17,47.84626,-54.09684
2023-10-04 17:59:01+00:00,306.5681,12.9,12.17,47.84626,-54.09684
2023-10-04 18:09:01+00:00,295.9163,12.9,12.17,47.84626,-54.09684
2023-10-04 18:19:01+00:00,285.6913,12.9,12.09,47.84626,-54.09684
2023-10-04 18:29:01+00:00,279.2664,12.9,12.09,47.84626,-54.09684
2023-10-04 18:39:01+00:00,274.3697,12.9,12.09,47.84626,-54.09684
2023-10-04 18:49:01+00:00,263.8381,12.9,12.09,47.84626,-54.09684
2023-10-04 18:59:01+00:00,252.8414,12.9,12.09,47.84626,-54.09684
2023-10-04 19:09:01+00:00,244.7415,12.9,12.09,47.84626,-54.09684
2023-10-04 19:19:00+00:00,234.9698,12.9,12.01,47.84626,-54.09684
2023-10-04 19:29:00+00:00,227.4781,12.9,12.01,47.84626,-54.09684
2023-10-04 19:39:00+00:00,221.2848,12.9,12.01,47.84626,-54.09684
2023-10-04 19:49:00+00:00,212.4814,12.9,12.01,47.84626,-54.09684
2023-10-04 19:59:00+00:00,209.9482,12.9,12.01,47.84626,-54.09684
2023-10-04 20:09:00+00:00,210.7081,12.9,12.01,47.84626,-54.09684
2023-10-04 20:19:00+00:00,204.3048,12.9,11.93,47.84626,-54.09684
2023-10-04 20:29:00+00:00,200.2897,12.9,11.93,47.84626,-54.09684
2023-10-04 20:39:00+00:00,204.6031,12.9,11.93,47.84626,-54.09684
2023-10-04 20:49:00+00:00,207.0531,12.89,11.93,47.84626,-54.09684
2023-10-04 20:59:00+00:00,205.6597,12.87,11.93,47.84626,-54.09684
2023-10-04 21:09:00+00:00,207.3548,12.86,11.93,47.84626,-54.09684
2023-10-04 21:19:00+00:00,212.9181,12.83,11.93,47.84626,-54.09684
2023-10-04 21:29:00+00:00,215.0381,12.8,11.93,47.84626,-54.09684
2023-10-04 21:39:00+00:00,215.5564,12.8,11.93,47.84626,-54.09684
2023-10-04 21:49:00+00:00,221.2348,12.8,11.93,47.84626,-54.09684
2023-10-04 21:59:00+00:00,226.2448,12.78,11.93,47.84626,-54.09684
2023-10-04 22:09:00+00:00,226.5198,12.7,11.93,47.84626,-54.09684
2023-10-04 22:19:00+00:00,228.4433,12.7,11.93,47.84626,-54.09684
2023-10-04 22:29:00+00:00,231.3548,12.7,11.93,47.84626,-54.09684
2023-10-04 22:39:00+00:00,231.3415,12.7,11.93,47.84626,-54.09684
2023-10-04 22:49:00+00:00,229.653,12.7,11.93,47.84626,-54.09684
2023-10-04 22:59:00+00:00,231.6047,12.7,11.93,47.84626,-54.09684
2023-10-04 23:09:00+00:00,235.3097,12.7,11.93,47.84626,-54.09684
2023-10-04 23:19:01+00:00,236.2348,12.7,11.86,47.84626,-54.09684
2023-10-04 23:29:01+00:00,238.4681,12.7,11.86,47.84626,-54.09684
2023-10-04 23:39:01+00:00,241.7498,12.7,11.86,47.84626,-54.09684
2023-10-04 23:49:01+00:00,247.8231,12.69,11.86,47.84626,-54.09684
2023-10-04 23:59:01+00:00,251.4382,12.69,11.86,47.84626,-54.09684
